Time,TemperatureF,DewpointF,PressureIn,WindDirection,WindDirectionDegrees,WindSpeedMPH,WindSpeedGustMPH,Humidity,HourlyPrecipIn,Conditions,Clouds,dailyrainin,SoftwareType,DateUTC
2014-03-14 00:00:00,44.6,31.6,29.54,WSW,248,8.0,14.0,60,0.00,,,0.00,Wunderground v.1.15,2014-03-14 05:00:00,
2014-03-14 00:04:00,44.0,31.4,29.54,WSW,238,8.0,14.0,61,0.00,,,0.00,Wunderground v.1.15,2014-03-14 05:04:00,
2014-03-14 00:06:00,43.8,31.6,29.54,SW,235,7.0,14.0,62,0.00,,,0.00,Wunderground v.1.15,2014-03-14 05:06:00,
2014-03-14 00:08:00,43.7,31.5,29.53,WSW,244,7.0,14.0,62,0.00,,,0.00,Wunderground v.1.15,2014-03-14 05:08:00,
2014-03-14 00:12:00,43.6,31.0,29.53,SW,219,7.0,7.0,61,0.00,,,0.00,Wunderground v.1.15,2014-03-14 05:12:00,
2014-03-14 00:14:00,43.6,31.0,29.53,SW,221,7.0,8.0,61,0.00,,,0.00,Wunderground v.1.15,2014-03-14 05:14:00,
2014-03-14 00:16:00,43.7,31.1,29.53,SSW,212,7.0,8.0,61,0.00,,,0.00,Wunderground v.1.15,2014-03-14 05:16:00,
2014-03-14 00:18:00,43.8,31.2,29.53,SW,219,8.0,8.0,61,0.00,,,0.00,Wunderground v.1.15,2014-03-14 05:18:00,
2014-03-14 00:22:00,44.0,31.0,29.53,SW,228,8.0,10.0,60,0.00,,,0.00,Wunderground v.1.15,2014-03-14 05:22:00,
2014-03-14 00:26:00,44.3,31.3,29.53,SW,233,8.0,10.0,60,0.00,,,0.00,Wunderground v.1.15,2014-03-14 05:26:00,
2014-03-14 00:32:00,44.0,31.0,29.53,SW,233,8.0,8.0,60,0.00,,,0.00,Wunderground v.1.15,2014-03-14 05:32:00,
2014-03-14 00:34:00,43.9,30.9,29.53,WSW,246,8.0,8.0,60,0.00,,,0.00,Wunderground v.1.15,2014-03-14 05:34:00,
2014-03-14 00:36:00,43.7,31.1,29.53,SW,218,7.0,8.0,61,0.00,,,0.00,Wunderground v.1.15,2014-03-14 05:36:00,
2014-03-14 00:40:00,43.2,31.1,29.53,West,260,7.0,7.0,62,0.00,,,0.00,Wunderground v.1.15,2014-03-14 05:40:00,
2014-03-14 00:42:00,42.8,31.1,29.53,West,271,7.0,7.0,63,0.00,,,0.00,Wunderground v.1.15,2014-03-14 05:42:00,
2014-03-14 00:44:00,42.4,31.1,29.53,SW,226,7.0,7.0,64,0.00,,,0.00,Wunderground v.1.15,2014-03-14 05:44:00,
2014-03-14 00:46:00,41.8,30.9,29.53,WSW,253,6.0,7.0,65,0.00,,,0.00,Wunderground v.1.15,2014-03-14 05:46:00,
2014-03-14 00:48:00,41.1,31.0,29.53,West,271,5.0,7.0,67,0.00,,,0.00,Wunderground v.1.15,2014-03-14 05:48:00,
2014-03-14 00:50:00,40.2,30.8,29.53,West,259,5.0,5.0,69,0.00,,,0.00,Wunderground v.1.15,2014-03-14 05:50:00,
2014-03-14 00:52:00,39.6,30.6,29.53,WSW,255,4.0,5.0,70,0.00,,,0.00,Wunderground v.1.15,2014-03-14 05:52:00,
2014-03-14 00:56:00,38.5,30.3,29.53,WSW,257,3.0,5.0,72,0.00,,,0.00,Wunderground v.1.15,2014-03-14 05:56:00,
2014-03-14 00:58:00,38.0,30.1,29.53,West,274,2.0,5.0,73,0.00,,,0.00,Wunderground v.1.15,2014-03-14 05:58:00,
2014-03-14 01:00:00,37.5,30.0,29.53,West,274,2.0,2.0,74,0.00,,,0.00,Wunderground v.1.15,2014-03-14 06:00:00,
2014-03-14 01:02:00,37.1,29.9,29.53,West,271,1.0,14.0,75,0.00,,,0.00,Wunderground v.1.15,2014-03-14 06:02:00,
2014-03-14 01:04:00,36.7,29.5,29.53,WSW,246,1.0,14.0,75,0.00,,,0.00,Wunderground v.1.15,2014-03-14 06:04:00,
2014-03-14 01:06:00,36.5,29.7,29.52,WSW,238,1.0,14.0,76,0.00,,,0.00,Wunderground v.1.15,2014-03-14 06:06:00,
2014-03-14 01:08:00,37.0,30.1,29.53,WSW,252,2.0,14.0,76,0.00,,,0.00,Wunderground v.1.15,2014-03-14 06:08:00,
2014-03-14 01:12:00,37.6,30.4,29.53,WSW,257,3.0,14.0,75,0.00,,,0.00,Wunderground v.1.15,2014-03-14 06:12:00,
2014-03-14 01:14:00,37.4,30.2,29.53,West,270,3.0,14.0,75,0.00,,,0.00,Wunderground v.1.15,2014-03-14 06:14:00,
2014-03-14 01:18:00,37.0,30.1,29.53,WNW,289,3.0,14.0,76,0.00,,,0.00,Wunderground v.1.15,2014-03-14 06:18:00,
2014-03-14 01:20:00,37.0,30.1,29.53,WNW,285,3.0,3.0,76,0.00,,,0.00,Wunderground v.1.15,2014-03-14 06:20:00,
2014-03-14 01:22:00,36.8,29.9,29.53,West,281,3.0,14.0,76,0.00,,,0.00,Wunderground v.1.15,2014-03-14 06:22:00,
2014-03-14 01:24:00,36.5,30.0,29.53,West,259,3.0,14.0,77,0.00,,,0.00,Wunderground v.1.15,2014-03-14 06:24:00,
2014-03-14 01:26:00,36.0,29.5,29.53,WSW,250,2.0,14.0,77,0.00,,,0.00,Wunderground v.1.15,2014-03-14 06:26:00,
2014-03-14 01:28:00,35.7,29.5,29.53,SW,235,2.0,14.0,78,0.00,,,0.00,Wunderground v.1.15,2014-03-14 06:28:00,
2014-03-14 01:30:00,35.4,29.5,29.53,WSW,248,1.0,14.0,79,0.00,,,0.00,Wunderground v.1.15,2014-03-14 06:30:00,
2014-03-14 01:32:00,35.5,29.9,29.52,West,259,2.0,14.0,80,0.00,,,0.00,Wunderground v.1.15,2014-03-14 06:32:00,
2014-03-14 01:36:00,35.6,30.0,29.53,West,270,2.0,14.0,80,0.00,,,0.00,Wunderground v.1.15,2014-03-14 06:36:00,
2014-03-14 01:38:00,35.6,30.0,29.53,West,259,2.0,14.0,80,0.00,,,0.00,Wunderground v.1.15,2014-03-14 06:38:00,
2014-03-14 01:40:00,35.5,29.9,29.53,West,260,2.0,2.0,80,0.00,,,0.00,Wunderground v.1.15,2014-03-14 06:40:00,
2014-03-14 01:44:00,35.6,30.0,29.53,WSW,241,2.0,14.0,80,0.00,,,0.00,Wunderground v.1.15,2014-03-14 06:44:00,
2014-03-14 01:46:00,35.7,30.1,29.52,West,267,2.0,14.0,80,0.00,,,0.00,Wunderground v.1.15,2014-03-14 06:46:00,
2014-03-14 01:52:00,36.1,30.2,29.52,WSW,245,2.0,3.0,79,0.00,,,0.00,Wunderground v.1.15,2014-03-14 06:52:00,
2014-03-14 01:56:00,36.4,30.2,29.52,West,264,2.0,14.0,78,0.00,,,0.00,Wunderground v.1.15,2014-03-14 06:56:00,
2014-03-14 02:00:00,36.0,30.1,29.53,West,262,2.0,14.0,79,0.00,,,0.00,Wunderground v.1.15,2014-03-14 07:00:00,
2014-03-14 02:02:00,35.9,30.3,29.53,West,262,2.0,14.0,80,0.00,,,0.00,Wunderground v.1.15,2014-03-14 07:02:00,
2014-03-14 02:04:00,35.8,30.2,29.53,West,269,2.0,14.0,80,0.00,,,0.00,Wunderground v.1.15,2014-03-14 07:04:00,
2014-03-14 02:10:00,35.6,30.0,29.53,WNW,283,1.0,14.0,80,0.00,,,0.00,Wunderground v.1.15,2014-03-14 07:10:00,
2014-03-14 02:12:00,35.3,30.1,29.54,NW,317,1.0,14.0,81,0.00,,,0.00,Wunderground v.1.15,2014-03-14 07:12:00,
2014-03-14 02:14:00,35.1,29.9,29.54,NW,314,1.0,14.0,81,0.00,,,0.00,Wunderground v.1.15,2014-03-14 07:14:00,
2014-03-14 02:16:00,35.1,30.2,29.54,WNW,302,2.0,14.0,82,0.00,,,0.00,Wunderground v.1.15,2014-03-14 07:16:00,
2014-03-14 02:22:00,35.5,30.2,29.55,NW,305,3.0,14.0,81,0.00,,,0.00,Wunderground v.1.15,2014-03-14 07:22:00,
2014-03-14 02:24:00,35.6,30.3,29.55,NW,307,2.0,14.0,81,0.00,,,0.00,Wunderground v.1.15,2014-03-14 07:24:00,
2014-03-14 02:26:00,35.5,30.2,29.55,NW,307,2.0,14.0,81,0.00,,,0.00,Wunderground v.1.15,2014-03-14 07:26:00,
2014-03-14 02:28:00,35.5,30.5,29.55,NW,306,2.0,14.0,82,0.00,,,0.00,Wunderground v.1.15,2014-03-14 07:28:00,
2014-03-14 02:30:00,35.5,30.2,29.55,WNW,287,2.0,14.0,81,0.00,,,0.00,Wunderground v.1.15,2014-03-14 07:30:00,
2014-03-14 02:32:00,35.7,30.4,29.55,WNW,293,2.0,14.0,81,0.00,,,0.00,Wunderground v.1.15,2014-03-14 07:32:00,
2014-03-14 02:34:00,35.7,30.4,29.55,WNW,287,2.0,14.0,81,0.00,,,0.00,Wunderground v.1.15,2014-03-14 07:34:00,
2014-03-14 02:36:00,35.8,30.5,29.55,WNW,288,2.0,14.0,81,0.00,,,0.00,Wunderground v.1.15,2014-03-14 07:36:00,
2014-03-14 02:38:00,36.0,30.7,29.55,WNW,283,2.0,14.0,81,0.00,,,0.00,Wunderground v.1.15,2014-03-14 07:38:00,
2014-03-14 02:40:00,36.0,30.7,29.55,West,281,2.0,2.0,81,0.00,,,0.00,Wunderground v.1.15,2014-03-14 07:40:00,
2014-03-14 02:42:00,36.0,30.7,29.55,WNW,293,2.0,14.0,81,0.00,,,0.00,Wunderground v.1.15,2014-03-14 07:42:00,
2014-03-14 02:46:00,36.1,30.8,29.55,WNW,284,2.0,14.0,81,0.00,,,0.00,Wunderground v.1.15,2014-03-14 07:46:00,
2014-03-14 02:48:00,36.1,30.8,29.55,West,277,2.0,14.0,81,0.00,,,0.00,Wunderground v.1.15,2014-03-14 07:48:00,
2014-03-14 02:50:00,35.9,30.6,29.55,West,269,2.0,2.0,81,0.00,,,0.00,Wunderground v.1.15,2014-03-14 07:50:00,
2014-03-14 02:54:00,35.6,30.6,29.55,West,273,1.0,14.0,82,0.00,,,0.00,Wunderground v.1.15,2014-03-14 07:54:00,
2014-03-14 02:56:00,35.4,30.5,29.55,West,272,1.0,14.0,82,0.00,,,0.00,Wunderground v.1.15,2014-03-14 07:56:00,
2014-03-14 02:58:00,35.4,30.8,29.55,West,273,1.0,14.0,83,0.00,,,0.00,Wunderground v.1.15,2014-03-14 07:58:00,
2014-03-14 03:02:00,35.3,30.7,29.55,West,279,0.0,14.0,83,0.00,,,0.00,Wunderground v.1.15,2014-03-14 08:02:00,
2014-03-14 03:04:00,35.3,30.7,29.55,West,279,0.0,14.0,83,0.00,,,0.00,Wunderground v.1.15,2014-03-14 08:04:00,
2014-03-14 03:08:00,35.0,30.4,29.55,West,280,0.0,14.0,83,0.00,,,0.00,Wunderground v.1.15,2014-03-14 08:08:00,
2014-03-14 03:10:00,34.8,30.5,29.55,West,280,0.0,14.0,84,0.00,,,0.00,Wunderground v.1.15,2014-03-14 08:10:00,
2014-03-14 03:12:00,34.8,30.5,29.55,WSW,246,0.0,14.0,84,0.00,,,0.00,Wunderground v.1.15,2014-03-14 08:12:00,
2014-03-14 03:14:00,34.8,30.5,29.56,SSW,210,0.0,14.0,84,0.00,,,0.00,Wunderground v.1.15,2014-03-14 08:14:00,
2014-03-14 03:18:00,34.7,30.4,29.56,SSW,210,1.0,14.0,84,0.00,,,0.00,Wunderground v.1.15,2014-03-14 08:18:00,
2014-03-14 03:20:00,34.7,30.7,29.56,SW,218,1.0,1.0,85,0.00,,,0.00,Wunderground v.1.15,2014-03-14 08:20:00,
2014-03-14 03:22:00,34.7,30.7,29.56,SW,218,1.0,14.0,85,0.00,,,0.00,Wunderground v.1.15,2014-03-14 08:22:00,
2014-03-14 03:24:00,34.7,30.4,29.56,SW,231,1.0,14.0,84,0.00,,,0.00,Wunderground v.1.15,2014-03-14 08:24:00,
2014-03-14 03:26:00,34.6,30.3,29.56,SW,232,1.0,14.0,84,0.00,,,0.00,Wunderground v.1.15,2014-03-14 08:26:00,
2014-03-14 03:30:00,34.4,30.4,29.56,West,263,1.0,14.0,85,0.00,,,0.00,Wunderground v.1.15,2014-03-14 08:30:00,
2014-03-14 03:32:00,34.4,30.4,29.56,WSW,256,1.0,14.0,85,0.00,,,0.00,Wunderground v.1.15,2014-03-14 08:32:00,
2014-03-14 03:36:00,34.2,30.4,29.56,WNW,294,1.0,14.0,86,0.00,,,0.00,Wunderground v.1.15,2014-03-14 08:36:00,
2014-03-14 03:38:00,34.5,31.3,29.56,NW,312,2.0,14.0,88,0.00,,,0.00,Wunderground v.1.15,2014-03-14 08:38:00,
2014-03-14 03:44:00,35.9,32.4,29.56,NW,326,3.0,14.0,87,0.00,,,0.00,Wunderground v.1.15,2014-03-14 08:44:00,
2014-03-14 03:46:00,36.2,32.4,29.56,NNW,339,3.0,14.0,86,0.00,,,0.00,Wunderground v.1.15,2014-03-14 08:46:00,
2014-03-14 03:48:00,36.4,32.6,29.56,NNW,329,3.0,14.0,86,0.00,,,0.00,Wunderground v.1.15,2014-03-14 08:48:00,
2014-03-14 03:50:00,36.5,32.7,29.56,NW,321,3.0,14.0,86,0.00,,,0.00,Wunderground v.1.15,2014-03-14 08:50:00,
2014-03-14 03:52:00,36.5,32.4,29.56,NW,326,3.0,14.0,85,0.00,,,0.00,Wunderground v.1.15,2014-03-14 08:52:00,
2014-03-14 03:54:00,36.3,32.2,29.57,NW,323,3.0,14.0,85,0.00,,,0.00,Wunderground v.1.15,2014-03-14 08:54:00,
2014-03-14 03:56:00,36.1,32.0,29.57,WNW,302,2.0,14.0,85,0.00,,,0.00,Wunderground v.1.15,2014-03-14 08:56:00,
2014-03-14 03:58:00,35.8,31.7,29.57,NW,306,2.0,14.0,85,0.00,,,0.00,Wunderground v.1.15,2014-03-14 08:58:00,
2014-03-14 04:00:00,35.6,31.8,29.57,NW,306,1.0,1.0,86,0.00,,,0.00,Wunderground v.1.15,2014-03-14 09:00:00,
2014-03-14 04:02:00,35.5,31.7,29.57,WNW,289,1.0,2.0,86,0.00,,,0.00,Wunderground v.1.15,2014-03-14 09:02:00,
2014-03-14 04:04:00,35.6,32.4,29.57,WNW,290,1.0,3.0,88,0.00,,,0.00,Wunderground v.1.15,2014-03-14 09:04:00,
2014-03-14 04:08:00,36.7,33.2,29.57,NW,305,2.0,14.0,87,0.00,,,0.00,Wunderground v.1.15,2014-03-14 09:08:00,
2014-03-14 04:10:00,36.9,33.1,29.58,NW,309,2.0,14.0,86,0.00,,,0.00,Wunderground v.1.15,2014-03-14 09:10:00,
2014-03-14 04:12:00,37.0,33.2,29.58,NW,318,3.0,14.0,86,0.00,,,0.00,Wunderground v.1.15,2014-03-14 09:12:00,
2014-03-14 04:14:00,37.0,33.2,29.58,NW,318,3.0,14.0,86,0.00,,,0.00,Wunderground v.1.15,2014-03-14 09:14:00,
2014-03-14 04:16:00,37.0,32.9,29.58,NNW,330,3.0,14.0,85,0.00,,,0.00,Wunderground v.1.15,2014-03-14 09:16:00,
2014-03-14 04:18:00,36.9,32.8,29.57,North,359,2.0,14.0,85,0.00,,,0.00,Wunderground v.1.15,2014-03-14 09:18:00,
2014-03-14 04:22:00,36.9,33.1,29.58,NW,315,2.0,14.0,86,0.00,,,0.00,Wunderground v.1.15,2014-03-14 09:22:00,
2014-03-14 04:24:00,37.0,33.2,29.58,NW,316,2.0,14.0,86,0.00,,,0.00,Wunderground v.1.15,2014-03-14 09:24:00,
2014-03-14 04:30:00,36.9,33.1,29.58,WNW,300,3.0,14.0,86,0.00,,,0.00,Wunderground v.1.15,2014-03-14 09:30:00,
2014-03-14 04:32:00,36.9,33.1,29.58,WNW,295,3.0,14.0,86,0.00,,,0.00,Wunderground v.1.15,2014-03-14 09:32:00,
2014-03-14 04:34:00,37.0,33.2,29.59,NW,316,4.0,14.0,86,0.00,,,0.00,Wunderground v.1.15,2014-03-14 09:34:00,
2014-03-14 04:36:00,37.1,33.0,29.59,NW,309,5.0,14.0,85,0.00,,,0.00,Wunderground v.1.15,2014-03-14 09:36:00,
2014-03-14 04:38:00,37.1,33.0,29.59,NW,311,5.0,14.0,85,0.00,,,0.00,Wunderground v.1.15,2014-03-14 09:38:00,
2014-03-14 04:40:00,37.1,33.0,29.59,NW,323,6.0,14.0,85,0.00,,,0.00,Wunderground v.1.15,2014-03-14 09:40:00,
2014-03-14 04:42:00,37.1,32.7,29.59,NW,322,6.0,14.0,84,0.00,,,0.00,Wunderground v.1.15,2014-03-14 09:42:00,
2014-03-14 04:44:00,37.1,32.7,29.60,NW,317,6.0,14.0,84,0.00,,,0.00,Wunderground v.1.15,2014-03-14 09:44:00,
2014-03-14 04:46:00,37.1,32.7,29.60,NW,317,6.0,14.0,84,0.00,,,0.00,Wunderground v.1.15,2014-03-14 09:46:00,
2014-03-14 04:52:00,37.3,32.9,29.60,WNW,294,6.0,9.0,84,0.00,,,0.00,Wunderground v.1.15,2014-03-14 09:52:00,
2014-03-14 04:54:00,37.4,32.7,29.60,NW,308,7.0,14.0,83,0.00,,,0.00,Wunderground v.1.15,2014-03-14 09:54:00,
2014-03-14 04:58:00,37.4,32.7,29.61,WNW,297,6.0,14.0,83,0.00,,,0.00,Wunderground v.1.15,2014-03-14 09:58:00,
2014-03-14 05:00:00,37.3,32.6,29.61,WNW,301,7.0,7.0,83,0.00,,,0.00,Wunderground v.1.15,2014-03-14 10:00:00,
2014-03-14 05:04:00,37.2,32.5,29.61,WNW,297,7.0,14.0,83,0.00,,,0.00,Wunderground v.1.15,2014-03-14 10:04:00,
2014-03-14 05:06:00,37.2,32.2,29.61,NW,319,7.0,14.0,82,0.00,,,0.00,Wunderground v.1.15,2014-03-14 10:06:00,
2014-03-14 05:08:00,37.2,32.2,29.61,NW,318,7.0,14.0,82,0.00,,,0.00,Wunderground v.1.15,2014-03-14 10:08:00,
2014-03-14 05:10:00,37.1,32.4,29.61,NW,323,6.0,6.0,83,0.00,,,0.00,Wunderground v.1.15,2014-03-14 10:10:00,
2014-03-14 05:14:00,36.8,32.1,29.61,NW,309,6.0,14.0,83,0.00,,,0.00,Wunderground v.1.15,2014-03-14 10:14:00,
2014-03-14 05:16:00,36.7,32.0,29.61,NW,305,5.0,14.0,83,0.00,,,0.00,Wunderground v.1.15,2014-03-14 10:16:00,
2014-03-14 05:18:00,36.7,32.0,29.61,NNW,347,5.0,14.0,83,0.00,,,0.00,Wunderground v.1.15,2014-03-14 10:18:00,
2014-03-14 05:22:00,36.6,31.9,29.61,NW,319,6.0,14.0,83,0.00,,,0.00,Wunderground v.1.15,2014-03-14 10:22:00,
2014-03-14 05:24:00,36.5,31.8,29.60,NW,305,6.0,14.0,83,0.00,,,0.00,Wunderground v.1.15,2014-03-14 10:24:00,
2014-03-14 05:28:00,36.4,31.7,29.61,WNW,293,6.0,14.0,83,0.00,,,0.00,Wunderground v.1.15,2014-03-14 10:28:00,
2014-03-14 05:30:00,36.3,31.6,29.61,NW,319,6.0,14.0,83,0.00,,,0.00,Wunderground v.1.15,2014-03-14 10:30:00,
2014-03-14 05:32:00,36.3,31.6,29.61,WNW,295,6.0,14.0,83,0.00,,,0.00,Wunderground v.1.15,2014-03-14 10:32:00,
2014-03-14 05:34:00,36.4,31.7,29.61,NW,307,6.0,14.0,83,0.00,,,0.00,Wunderground v.1.15,2014-03-14 10:34:00,
2014-03-14 05:36:00,36.3,31.6,29.62,NW,312,6.0,14.0,83,0.00,,,0.00,Wunderground v.1.15,2014-03-14 10:36:00,
2014-03-14 05:38:00,36.3,31.6,29.62,WNW,294,6.0,14.0,83,0.00,,,0.00,Wunderground v.1.15,2014-03-14 10:38:00,
2014-03-14 05:42:00,36.5,31.8,29.62,NW,310,6.0,14.0,83,0.00,,,0.00,Wunderground v.1.15,2014-03-14 10:42:00,
2014-03-14 05:44:00,36.4,31.4,29.62,WNW,301,6.0,14.0,82,0.00,,,0.00,Wunderground v.1.15,2014-03-14 10:44:00,
2014-03-14 05:46:00,36.5,31.5,29.63,NW,312,7.0,14.0,82,0.00,,,0.00,Wunderground v.1.15,2014-03-14 10:46:00,
2014-03-14 05:48:00,36.5,31.5,29.63,WNW,298,6.0,14.0,82,0.00,,,0.00,Wunderground v.1.15,2014-03-14 10:48:00,
2014-03-14 05:50:00,36.4,31.4,29.63,WNW,298,6.0,14.0,82,0.00,,,0.00,Wunderground v.1.15,2014-03-14 10:50:00,
2014-03-14 05:52:00,36.3,31.3,29.63,NW,316,6.0,14.0,82,0.00,,,0.00,Wunderground v.1.15,2014-03-14 10:52:00,
2014-03-14 05:54:00,36.2,31.5,29.63,WNW,298,6.0,14.0,83,0.00,,,0.00,Wunderground v.1.15,2014-03-14 10:54:00,
2014-03-14 06:00:00,36.0,31.3,29.63,NW,322,5.0,14.0,83,0.00,,,0.00,Wunderground v.1.15,2014-03-14 11:00:00,
2014-03-14 06:02:00,36.0,31.3,29.63,WNW,301,5.0,14.0,83,0.00,,,0.00,Wunderground v.1.15,2014-03-14 11:02:00,
2014-03-14 06:06:00,35.8,31.1,29.63,WNW,293,5.0,14.0,83,0.00,,,0.00,Wunderground v.1.15,2014-03-14 11:06:00,
2014-03-14 06:08:00,35.7,31.0,29.63,NW,314,5.0,14.0,83,0.00,,,0.00,Wunderground v.1.15,2014-03-14 11:08:00,
2014-03-14 06:10:00,35.7,31.0,29.63,NW,326,5.0,14.0,83,0.00,,,0.00,Wunderground v.1.15,2014-03-14 11:10:00,
2014-03-14 06:12:00,35.7,31.0,29.63,WNW,301,5.0,14.0,83,0.00,,,0.00,Wunderground v.1.15,2014-03-14 11:12:00,
2014-03-14 06:16:00,35.7,31.0,29.63,NW,325,6.0,14.0,83,0.00,,,0.00,Wunderground v.1.15,2014-03-14 11:16:00,
2014-03-14 06:18:00,35.7,31.0,29.63,NW,309,6.0,14.0,83,0.00,,,0.00,Wunderground v.1.15,2014-03-14 11:18:00,
2014-03-14 06:20:00,35.6,30.9,29.64,NW,307,6.0,14.0,83,0.00,,,0.00,Wunderground v.1.15,2014-03-14 11:20:00,
2014-03-14 06:22:00,35.5,30.8,29.64,WNW,302,6.0,14.0,83,0.00,,,0.00,Wunderground v.1.15,2014-03-14 11:22:00,
2014-03-14 06:24:00,35.5,30.8,29.64,WNW,298,6.0,14.0,83,0.00,,,0.00,Wunderground v.1.15,2014-03-14 11:24:00,
2014-03-14 06:28:00,35.3,30.7,29.64,NW,317,6.0,14.0,83,0.00,,,0.00,Wunderground v.1.15,2014-03-14 11:28:00,
2014-03-14 06:32:00,35.1,30.8,29.64,NW,313,5.0,6.0,84,0.00,,,0.00,Wunderground v.1.15,2014-03-14 11:32:00,
2014-03-14 06:34:00,35.0,30.7,29.64,WNW,297,5.0,14.0,84,0.00,,,0.00,Wunderground v.1.15,2014-03-14 11:34:00,
2014-03-14 06:38:00,34.7,30.4,29.64,West,278,5.0,14.0,84,0.00,,,0.00,Wunderground v.1.15,2014-03-14 11:38:00,
2014-03-14 06:40:00,34.5,30.5,29.64,WNW,297,5.0,5.0,85,0.00,,,0.00,Wunderground v.1.15,2014-03-14 11:40:00,
2014-03-14 06:42:00,34.4,30.4,29.64,West,280,5.0,14.0,85,0.00,,,0.00,Wunderground v.1.15,2014-03-14 11:42:00,
2014-03-14 06:44:00,34.1,30.1,29.64,West,274,4.0,14.0,85,0.00,,,0.00,Wunderground v.1.15,2014-03-14 11:44:00,
2014-03-14 06:48:00,33.7,30.0,29.64,West,273,4.0,14.0,86,0.00,,,0.00,Wunderground v.1.15,2014-03-14 11:48:00,
2014-03-14 06:50:00,33.6,30.1,29.64,WNW,290,4.0,14.0,87,0.00,,,0.00,Wunderground v.1.15,2014-03-14 11:50:00,
2014-03-14 06:52:00,33.5,30.0,29.64,West,271,3.0,14.0,87,0.00,,,0.00,Wunderground v.1.15,2014-03-14 11:52:00,
2014-03-14 06:58:00,33.5,30.3,29.64,West,276,4.0,14.0,88,0.00,,,0.00,Wunderground v.1.15,2014-03-14 11:58:00,
2014-03-14 07:00:00,33.4,30.2,29.64,NW,310,4.0,14.0,88,0.00,,,0.00,Wunderground v.1.15,2014-03-14 12:00:00,
2014-03-14 07:02:00,33.4,30.2,29.64,WNW,297,4.0,14.0,88,0.00,,,0.00,Wunderground v.1.15,2014-03-14 12:02:00,
2014-03-14 07:04:00,33.3,30.1,29.64,West,267,4.0,14.0,88,0.00,,,0.00,Wunderground v.1.15,2014-03-14 12:04:00,
2014-03-14 07:08:00,33.2,30.0,29.64,WNW,299,4.0,14.0,88,0.00,,,0.00,Wunderground v.1.15,2014-03-14 12:08:00,
2014-03-14 07:10:00,33.0,29.8,29.64,WNW,284,4.0,14.0,88,0.00,,,0.00,Wunderground v.1.15,2014-03-14 12:10:00,
2014-03-14 07:12:00,33.0,30.1,29.64,WNW,288,5.0,14.0,89,0.00,,,0.00,Wunderground v.1.15,2014-03-14 12:12:00,
2014-03-14 07:16:00,33.0,30.1,29.64,WNW,298,5.0,14.0,89,0.00,,,0.00,Wunderground v.1.15,2014-03-14 12:16:00,
2014-03-14 07:18:00,32.9,30.0,29.64,WNW,295,5.0,14.0,89,0.00,,,0.00,Wunderground v.1.15,2014-03-14 12:18:00,
2014-03-14 07:22:00,32.8,29.9,29.64,WNW,295,4.0,14.0,89,0.00,,,0.00,Wunderground v.1.15,2014-03-14 12:22:00,
2014-03-14 07:26:00,33.0,30.1,29.64,WNW,293,4.0,14.0,89,0.00,,,0.00,Wunderground v.1.15,2014-03-14 12:26:00,
2014-03-14 07:28:00,33.1,30.2,29.65,West,277,5.0,14.0,89,0.00,,,0.00,Wunderground v.1.15,2014-03-14 12:28:00,
2014-03-14 07:30:00,33.1,30.2,29.65,WNW,290,5.0,14.0,89,0.00,,,0.00,Wunderground v.1.15,2014-03-14 12:30:00,
2014-03-14 07:32:00,33.2,30.3,29.65,WNW,297,6.0,14.0,89,0.00,,,0.00,Wunderground v.1.15,2014-03-14 12:32:00,
2014-03-14 07:36:00,33.4,30.5,29.65,WNW,291,6.0,14.0,89,0.00,,,0.00,Wunderground v.1.15,2014-03-14 12:36:00,
2014-03-14 07:38:00,33.5,30.6,29.65,WNW,299,6.0,14.0,89,0.00,,,0.00,Wunderground v.1.15,2014-03-14 12:38:00,
2014-03-14 07:40:00,33.5,30.3,29.65,WNW,287,6.0,14.0,88,0.00,,,0.00,Wunderground v.1.15,2014-03-14 12:40:00,
2014-03-14 07:44:00,33.5,30.3,29.65,WNW,289,6.0,14.0,88,0.00,,,0.00,Wunderground v.1.15,2014-03-14 12:44:00,
2014-03-14 07:46:00,33.4,30.5,29.65,West,276,6.0,14.0,89,0.00,,,0.00,Wunderground v.1.15,2014-03-14 12:46:00,
2014-03-14 07:52:00,33.3,30.4,29.66,WNW,292,6.0,14.0,89,0.00,,,0.00,Wunderground v.1.15,2014-03-14 12:52:00,
2014-03-14 07:54:00,33.3,30.4,29.66,WNW,295,6.0,14.0,89,0.00,,,0.00,Wunderground v.1.15,2014-03-14 12:54:00,
2014-03-14 07:56:00,33.4,30.5,29.66,West,274,6.0,14.0,89,0.00,,,0.00,Wunderground v.1.15,2014-03-14 12:56:00,
2014-03-14 08:06:00,33.7,30.8,29.66,WNW,294,7.0,14.0,89,0.00,,,0.00,Wunderground v.1.15,2014-03-14 13:06:00,
2014-03-14 08:08:00,33.8,30.9,29.66,WNW,288,6.0,14.0,89,0.00,,,0.00,Wunderground v.1.15,2014-03-14 13:08:00,
2014-03-14 08:14:00,34.0,30.8,29.66,WNW,289,7.0,14.0,88,0.00,,,0.00,Wunderground v.1.15,2014-03-14 13:14:00,
2014-03-14 08:16:00,34.0,30.8,29.67,WNW,294,7.0,14.0,88,0.00,,,0.00,Wunderground v.1.15,2014-03-14 13:16:00,
2014-03-14 08:18:00,34.1,30.9,29.66,WNW,294,7.0,14.0,88,0.00,,,0.00,Wunderground v.1.15,2014-03-14 13:18:00,
2014-03-14 08:22:00,34.2,31.0,29.67,WNW,282,7.0,14.0,88,0.00,,,0.00,Wunderground v.1.15,2014-03-14 13:22:00,
2014-03-14 08:24:00,34.3,31.1,29.67,WNW,285,7.0,14.0,88,0.00,,,0.00,Wunderground v.1.15,2014-03-14 13:24:00,
2014-03-14 08:28:00,34.4,31.2,29.67,WNW,293,7.0,14.0,88,0.00,,,0.00,Wunderground v.1.15,2014-03-14 13:28:00,
2014-03-14 08:32:00,34.5,31.3,29.67,WNW,282,7.0,14.0,88,0.00,,,0.00,Wunderground v.1.15,2014-03-14 13:32:00,
2014-03-14 08:34:00,34.5,31.3,29.67,WNW,294,7.0,14.0,88,0.00,,,0.00,Wunderground v.1.15,2014-03-14 13:34:00,
2014-03-14 08:38:00,34.5,31.3,29.67,WNW,291,8.0,14.0,88,0.00,,,0.00,Wunderground v.1.15,2014-03-14 13:38:00,
2014-03-14 08:40:00,34.6,31.4,29.67,WNW,285,8.0,14.0,88,0.00,,,0.00,Wunderground v.1.15,2014-03-14 13:40:00,
2014-03-14 08:42:00,34.6,31.4,29.68,WNW,287,8.0,14.0,88,0.00,,,0.00,Wunderground v.1.15,2014-03-14 13:42:00,
2014-03-14 08:46:00,34.7,31.5,29.68,West,279,8.0,14.0,88,0.00,,,0.00,Wunderground v.1.15,2014-03-14 13:46:00,
2014-03-14 08:48:00,34.8,31.6,29.68,West,271,8.0,14.0,88,0.00,,,0.00,Wunderground v.1.15,2014-03-14 13:48:00,
2014-03-14 08:50:00,34.8,31.6,29.68,West,281,8.0,14.0,88,0.00,,,0.00,Wunderground v.1.15,2014-03-14 13:50:00,
2014-03-14 08:52:00,34.9,31.7,29.68,West,277,9.0,14.0,88,0.00,,,0.00,Wunderground v.1.15,2014-03-14 13:52:00,
2014-03-14 08:56:00,35.0,31.8,29.68,WNW,297,9.0,14.0,88,0.00,,,0.00,Wunderground v.1.15,2014-03-14 13:56:00,
2014-03-14 08:58:00,35.1,31.9,29.68,WNW,297,9.0,14.0,88,0.00,,,0.00,Wunderground v.1.15,2014-03-14 13:58:00,
2014-03-14 09:00:00,35.2,31.7,29.68,WNW,284,9.0,9.0,87,0.00,,,0.00,Wunderground v.1.15,2014-03-14 14:00:00,
2014-03-14 09:04:00,35.4,31.9,29.68,WNW,288,9.0,14.0,87,0.00,,,0.00,Wunderground v.1.15,2014-03-14 14:04:00,
2014-03-14 09:06:00,35.5,32.0,29.68,WNW,301,9.0,14.0,87,0.00,,,0.00,Wunderground v.1.15,2014-03-14 14:06:00,
2014-03-14 09:08:00,35.6,32.1,29.69,West,274,10.0,14.0,87,0.00,,,0.00,Wunderground v.1.15,2014-03-14 14:08:00,
2014-03-14 09:10:00,35.7,32.2,29.69,NW,311,9.0,14.0,87,0.00,,,0.00,Wunderground v.1.15,2014-03-14 14:10:00,
2014-03-14 09:12:00,35.8,32.3,29.69,WNW,288,9.0,14.0,87,0.00,,,0.00,Wunderground v.1.15,2014-03-14 14:12:00,
2014-03-14 09:14:00,35.9,32.1,29.69,West,278,9.0,14.0,86,0.00,,,0.00,Wunderground v.1.15,2014-03-14 14:14:00,
2014-03-14 09:18:00,36.1,32.3,29.69,WNW,297,9.0,14.0,86,0.00,,,0.00,Wunderground v.1.15,2014-03-14 14:18:00,
2014-03-14 09:20:00,36.2,32.4,29.69,NW,305,10.0,14.0,86,0.00,,,0.00,Wunderground v.1.15,2014-03-14 14:20:00,
2014-03-14 09:22:00,36.3,32.5,29.69,NW,314,10.0,14.0,86,0.00,,,0.00,Wunderground v.1.15,2014-03-14 14:22:00,
2014-03-14 09:26:00,36.5,32.4,29.69,West,274,9.0,14.0,85,0.00,,,0.00,Wunderground v.1.15,2014-03-14 14:26:00,
2014-03-14 09:28:00,36.6,32.5,29.69,WNW,294,10.0,14.0,85,0.00,,,0.00,Wunderground v.1.15,2014-03-14 14:28:00,
2014-03-14 09:30:00,36.7,32.9,29.69,WNW,295,10.0,14.0,86,0.00,,,0.00,Wunderground v.1.15,2014-03-14 14:30:00,
2014-03-14 09:32:00,36.8,32.7,29.69,NW,316,10.0,14.0,85,0.00,,,0.00,Wunderground v.1.15,2014-03-14 14:32:00,
2014-03-14 09:34:00,36.9,32.8,29.69,NW,306,10.0,14.0,85,0.00,,,0.00,Wunderground v.1.15,2014-03-14 14:34:00,
2014-03-14 09:38:00,37.1,33.0,29.69,WNW,302,11.0,14.0,85,0.00,,,0.00,Wunderground v.1.15,2014-03-14 14:38:00,
2014-03-14 09:42:00,37.3,33.2,29.69,WNW,283,11.0,18.0,85,0.00,,,0.00,Wunderground v.1.15,2014-03-14 14:42:00,
2014-03-14 09:44:00,37.4,33.0,29.69,WNW,297,11.0,18.0,84,0.00,,,0.00,Wunderground v.1.15,2014-03-14 14:44:00,
2014-03-14 09:46:00,37.6,33.2,29.69,WNW,293,11.0,18.0,84,0.00,,,0.00,Wunderground v.1.15,2014-03-14 14:46:00,
2014-03-14 09:48:00,37.7,33.3,29.69,NW,311,11.0,18.0,84,0.00,,,0.00,Wunderground v.1.15,2014-03-14 14:48:00,
2014-03-14 09:50:00,37.8,33.4,29.69,West,269,11.0,14.0,84,0.00,,,0.00,Wunderground v.1.15,2014-03-14 14:50:00,
2014-03-14 09:52:00,37.9,33.2,29.69,NW,321,11.0,14.0,83,0.00,,,0.00,Wunderground v.1.15,2014-03-14 14:52:00,
2014-03-14 09:54:00,38.0,33.6,29.69,WNW,291,11.0,14.0,84,0.00,,,0.00,Wunderground v.1.15,2014-03-14 14:54:00,
2014-03-14 09:58:00,38.2,33.8,29.70,WNW,297,11.0,18.0,84,0.00,,,0.00,Wunderground v.1.15,2014-03-14 14:58:00,
2014-03-14 10:00:00,38.3,33.6,29.70,WNW,299,11.0,14.0,83,0.00,,,0.00,Wunderground v.1.15,2014-03-14 15:00:00,
2014-03-14 10:04:00,38.4,33.7,29.70,WNW,298,12.0,17.0,83,0.00,,,0.00,Wunderground v.1.15,2014-03-14 15:04:00,
2014-03-14 10:06:00,38.4,33.4,29.70,NW,305,12.0,17.0,82,0.00,,,0.00,Wunderground v.1.15,2014-03-14 15:06:00,
2014-03-14 10:08:00,38.5,33.8,29.70,WNW,290,13.0,17.0,83,0.00,,,0.00,Wunderground v.1.15,2014-03-14 15:08:00,
2014-03-14 10:10:00,38.7,34.0,29.70,WNW,295,13.0,13.0,83,0.00,,,0.00,Wunderground v.1.15,2014-03-14 15:10:00,
2014-03-14 10:12:00,38.9,34.2,29.70,WNW,291,13.0,14.0,83,0.00,,,0.00,Wunderground v.1.15,2014-03-14 15:12:00,
2014-03-14 10:16:00,39.1,34.1,29.70,NW,305,13.0,15.0,82,0.00,,,0.00,Wunderground v.1.15,2014-03-14 15:16:00,
2014-03-14 10:18:00,39.2,34.5,29.70,WNW,299,12.0,15.0,83,0.00,,,0.00,Wunderground v.1.15,2014-03-14 15:18:00,
2014-03-14 10:20:00,39.3,34.3,29.70,WNW,298,12.0,15.0,82,0.00,,,0.00,Wunderground v.1.15,2014-03-14 15:20:00,
2014-03-14 10:24:00,39.6,34.2,29.70,WNW,302,12.0,16.0,81,0.00,,,0.00,Wunderground v.1.15,2014-03-14 15:24:00,
2014-03-14 10:30:00,39.7,34.3,29.71,NNW,333,13.0,18.0,81,0.00,,,0.00,Wunderground v.1.15,2014-03-14 15:30:00,
2014-03-14 10:32:00,39.7,34.0,29.70,NNW,331,14.0,18.0,80,0.00,,,0.00,Wunderground v.1.15,2014-03-14 15:32:00,
2014-03-14 10:34:00,39.7,34.3,29.70,NW,314,14.0,18.0,81,0.00,,,0.00,Wunderground v.1.15,2014-03-14 15:34:00,
2014-03-14 10:36:00,39.9,34.2,29.70,WNW,297,15.0,18.0,80,0.00,,,0.00,Wunderground v.1.15,2014-03-14 15:36:00,
2014-03-14 10:38:00,40.0,34.6,29.70,WNW,294,14.0,18.0,81,0.00,,,0.00,Wunderground v.1.15,2014-03-14 15:38:00,
2014-03-14 10:40:00,40.2,34.8,29.70,WNW,298,14.0,14.0,81,0.00,,,0.00,Wunderground v.1.15,2014-03-14 15:40:00,
2014-03-14 10:42:00,40.4,34.7,29.70,NW,315,13.0,16.0,80,0.00,,,0.00,Wunderground v.1.15,2014-03-14 15:42:00,
2014-03-14 10:44:00,40.4,34.7,29.71,NNW,332,13.0,16.0,80,0.00,,,0.00,Wunderground v.1.15,2014-03-14 15:44:00,
2014-03-14 10:46:00,40.4,35.0,29.71,NW,311,13.0,16.0,81,0.00,,,0.00,Wunderground v.1.15,2014-03-14 15:46:00,
2014-03-14 10:50:00,40.6,34.9,29.70,NW,311,14.0,16.0,80,0.00,,,0.00,Wunderground v.1.15,2014-03-14 15:50:00,
2014-03-14 10:52:00,40.6,35.2,29.71,WNW,297,14.0,16.0,81,0.00,,,0.00,Wunderground v.1.15,2014-03-14 15:52:00,
2014-03-14 10:54:00,40.5,34.8,29.71,NW,314,14.0,16.0,80,0.00,,,0.00,Wunderground v.1.15,2014-03-14 15:54:00,
2014-03-14 10:56:00,40.6,34.9,29.71,NW,308,14.0,18.0,80,0.00,,,0.00,Wunderground v.1.15,2014-03-14 15:56:00,
2014-03-14 10:58:00,40.7,35.0,29.71,NW,316,14.0,18.0,80,0.00,,,0.00,Wunderground v.1.15,2014-03-14 15:58:00,
2014-03-14 11:00:00,41.0,35.6,29.71,NW,304,13.0,14.0,81,0.00,,,0.00,Wunderground v.1.15,2014-03-14 16:00:00,
2014-03-14 11:04:00,41.2,35.5,29.71,WNW,294,13.0,14.0,80,0.00,,,0.00,Wunderground v.1.15,2014-03-14 16:04:00,
2014-03-14 11:06:00,41.1,35.4,29.71,NW,319,13.0,16.0,80,0.00,,,0.00,Wunderground v.1.15,2014-03-14 16:06:00,
2014-03-14 11:10:00,40.9,34.6,29.71,WNW,300,13.0,14.0,78,0.00,,,0.00,Wunderground v.1.15,2014-03-14 16:10:00,
2014-03-14 11:12:00,41.1,35.4,29.71,NNW,339,13.0,14.0,80,0.00,,,0.00,Wunderground v.1.15,2014-03-14 16:12:00,
2014-03-14 11:16:00,41.7,35.7,29.72,WNW,297,13.0,18.0,79,0.00,,,0.00,Wunderground v.1.15,2014-03-14 16:16:00,
2014-03-14 11:18:00,41.9,35.9,29.72,WNW,298,14.0,18.0,79,0.00,,,0.00,Wunderground v.1.15,2014-03-14 16:18:00,
2014-03-14 11:22:00,41.8,35.8,29.72,NW,323,14.0,14.0,79,0.00,,,0.00,Wunderground v.1.15,2014-03-14 16:22:00,
2014-03-14 11:24:00,42.0,36.0,29.72,NW,325,14.0,16.0,79,0.00,,,0.00,Wunderground v.1.15,2014-03-14 16:24:00,
2014-03-14 11:26:00,42.0,35.6,29.72,WNW,293,14.0,16.0,78,0.00,,,0.00,Wunderground v.1.15,2014-03-14 16:26:00,
2014-03-14 11:28:00,42.2,36.2,29.72,NW,309,14.0,16.0,79,0.00,,,0.00,Wunderground v.1.15,2014-03-14 16:28:00,
2014-03-14 11:32:00,42.4,36.0,29.73,West,276,13.0,17.0,78,0.00,,,0.00,Wunderground v.1.15,2014-03-14 16:32:00,
2014-03-14 11:34:00,42.7,36.6,29.73,NW,310,13.0,17.0,79,0.00,,,0.00,Wunderground v.1.15,2014-03-14 16:34:00,
2014-03-14 11:36:00,42.8,35.8,29.73,WNW,286,13.0,17.0,76,0.00,,,0.00,Wunderground v.1.15,2014-03-14 16:36:00,
2014-03-14 11:38:00,42.7,36.0,29.73,WNW,298,13.0,17.0,77,0.00,,,0.00,Wunderground v.1.15,2014-03-14 16:38:00,
2014-03-14 11:40:00,42.5,36.1,29.73,WNW,291,13.0,15.0,78,0.00,,,0.00,Wunderground v.1.15,2014-03-14 16:40:00,
2014-03-14 11:44:00,42.5,35.8,29.73,WNW,293,13.0,15.0,77,0.00,,,0.00,Wunderground v.1.15,2014-03-14 16:44:00,
2014-03-14 11:46:00,42.3,35.6,29.73,WNW,300,12.0,15.0,77,0.00,,,0.00,Wunderground v.1.15,2014-03-14 16:46:00,
2014-03-14 11:50:00,42.6,36.9,29.73,WNW,297,12.0,12.0,80,0.00,,,0.00,Wunderground v.1.15,2014-03-14 16:50:00,
2014-03-14 11:52:00,42.7,35.7,29.73,NW,309,13.0,13.0,76,0.00,,,0.00,Wunderground v.1.15,2014-03-14 16:52:00,
2014-03-14 11:54:00,42.9,36.5,29.74,NW,312,13.0,14.0,78,0.00,,,0.00,Wunderground v.1.15,2014-03-14 16:54:00,
2014-03-14 11:56:00,42.7,35.7,29.74,WNW,298,13.0,14.0,76,0.00,,,0.00,Wunderground v.1.15,2014-03-14 16:56:00,
2014-03-14 12:00:00,42.5,36.1,29.74,WNW,302,12.0,16.0,78,0.00,,,0.00,Wunderground v.1.15,2014-03-14 17:00:00,
2014-03-14 12:02:00,42.2,35.2,29.74,NW,316,13.0,16.0,76,0.00,,,0.00,Wunderground v.1.15,2014-03-14 17:02:00,
2014-03-14 12:04:00,42.0,35.3,29.74,NW,304,13.0,16.0,77,0.00,,,0.00,Wunderground v.1.15,2014-03-14 17:04:00,
2014-03-14 12:06:00,42.1,35.7,29.74,NW,326,13.0,16.0,78,0.00,,,0.00,Wunderground v.1.15,2014-03-14 17:06:00,
2014-03-14 12:08:00,42.4,36.3,29.74,West,280,13.0,16.0,79,0.00,,,0.00,Wunderground v.1.15,2014-03-14 17:08:00,
2014-03-14 12:12:00,43.1,36.7,29.74,WNW,293,12.0,13.0,78,0.00,,,0.00,Wunderground v.1.15,2014-03-14 17:12:00,
2014-03-14 12:14:00,43.0,36.3,29.74,WNW,298,12.0,13.0,77,0.00,,,0.00,Wunderground v.1.15,2014-03-14 17:14:00,
2014-03-14 12:16:00,42.9,36.2,29.75,WNW,300,12.0,13.0,77,0.00,,,0.00,Wunderground v.1.15,2014-03-14 17:16:00,
2014-03-14 12:20:00,42.7,36.0,29.75,West,271,11.0,11.0,77,0.00,,,0.00,Wunderground v.1.15,2014-03-14 17:20:00,
2014-03-14 12:22:00,42.5,35.8,29.75,NW,305,11.0,11.0,77,0.00,,,0.00,Wunderground v.1.15,2014-03-14 17:22:00,
2014-03-14 12:24:00,42.7,36.0,29.75,WNW,298,11.0,11.0,77,0.00,,,0.00,Wunderground v.1.15,2014-03-14 17:24:00,
2014-03-14 12:28:00,42.7,35.7,29.75,WNW,286,12.0,13.0,76,0.00,,,0.00,Wunderground v.1.15,2014-03-14 17:28:00,
2014-03-14 12:30:00,43.2,36.8,29.74,WNW,288,12.0,12.0,78,0.00,,,0.00,Wunderground v.1.15,2014-03-14 17:30:00,
2014-03-14 12:32:00,43.4,36.7,29.75,NNW,330,12.0,12.0,77,0.00,,,0.00,Wunderground v.1.15,2014-03-14 17:32:00,
2014-03-14 12:34:00,43.2,35.8,29.75,West,281,12.0,12.0,75,0.00,,,0.00,Wunderground v.1.15,2014-03-14 17:34:00,
2014-03-14 12:36:00,43.0,36.0,29.75,NW,311,12.0,13.0,76,0.00,,,0.00,Wunderground v.1.15,2014-03-14 17:36:00,
2014-03-14 12:38:00,42.9,36.2,29.75,NW,310,12.0,13.0,77,0.00,,,0.00,Wunderground v.1.15,2014-03-14 17:38:00,
2014-03-14 12:40:00,42.9,36.5,29.75,WNW,303,11.0,11.0,78,0.00,,,0.00,Wunderground v.1.15,2014-03-14 17:40:00,
2014-03-14 12:42:00,43.1,36.7,29.75,WNW,293,11.0,13.0,78,0.00,,,0.00,Wunderground v.1.15,2014-03-14 17:42:00,
2014-03-14 12:46:00,43.4,36.3,29.75,NW,325,10.0,13.0,76,0.00,,,0.00,Wunderground v.1.15,2014-03-14 17:46:00,
2014-03-14 12:48:00,43.4,37.0,29.75,WNW,299,10.0,13.0,78,0.00,,,0.00,Wunderground v.1.15,2014-03-14 17:48:00,
2014-03-14 12:50:00,43.3,36.9,29.75,NNW,333,10.0,15.0,78,0.00,,,0.00,Wunderground v.1.15,2014-03-14 17:50:00,
2014-03-14 12:52:00,43.7,37.0,29.75,NNW,329,10.0,15.0,77,0.00,,,0.00,Wunderground v.1.15,2014-03-14 17:52:00,
2014-03-14 12:54:00,44.0,36.9,29.75,NW,323,10.0,15.0,76,0.00,,,0.00,Wunderground v.1.15,2014-03-14 17:54:00,
2014-03-14 12:56:00,43.7,36.3,29.75,WNW,302,10.0,15.0,75,0.00,,,0.00,Wunderground v.1.15,2014-03-14 17:56:00,
2014-03-14 13:02:00,43.7,37.0,29.75,WNW,284,12.0,13.0,77,0.00,,,0.00,Wunderground v.1.15,2014-03-14 18:02:00,
2014-03-14 13:04:00,43.5,35.8,29.76,NW,316,12.0,21.0,74,0.00,,,0.00,Wunderground v.1.15,2014-03-14 18:04:00,
2014-03-14 13:06:00,43.3,35.9,29.76,NW,317,12.0,21.0,75,0.00,,,0.00,Wunderground v.1.15,2014-03-14 18:06:00,
2014-03-14 13:08:00,44.0,37.3,29.76,NNW,332,12.0,21.0,77,0.00,,,0.00,Wunderground v.1.15,2014-03-14 18:08:00,
2014-03-14 13:10:00,44.1,36.7,29.76,NW,317,13.0,13.0,75,0.00,,,0.00,Wunderground v.1.15,2014-03-14 18:10:00,
2014-03-14 13:12:00,43.9,36.1,29.76,NW,325,13.0,21.0,74,0.00,,,0.00,Wunderground v.1.15,2014-03-14 18:12:00,
2014-03-14 13:16:00,43.3,35.9,29.76,WNW,297,13.0,21.0,75,0.00,,,0.00,Wunderground v.1.15,2014-03-14 18:16:00,
2014-03-14 13:18:00,43.2,35.5,29.76,NNE,26,14.0,21.0,74,0.00,,,0.00,Wunderground v.1.15,2014-03-14 18:18:00,
2014-03-14 13:20:00,43.2,35.8,29.76,NW,317,14.0,21.0,75,0.00,,,0.00,Wunderground v.1.15,2014-03-14 18:20:00,
2014-03-14 13:24:00,43.6,36.5,29.76,NW,311,13.0,21.0,76,0.00,,,0.00,Wunderground v.1.15,2014-03-14 18:24:00,
2014-03-14 13:26:00,43.6,36.2,29.77,NW,305,13.0,21.0,75,0.00,,,0.00,Wunderground v.1.15,2014-03-14 18:26:00,
2014-03-14 13:28:00,43.8,36.7,29.76,NNW,335,14.0,21.0,76,0.00,,,0.00,Wunderground v.1.15,2014-03-14 18:28:00,
2014-03-14 13:30:00,44.1,36.7,29.76,NNW,343,14.0,14.0,75,0.00,,,0.00,Wunderground v.1.15,2014-03-14 18:30:00,
2014-03-14 13:32:00,43.9,35.1,29.76,NW,311,14.0,17.0,71,0.00,,,0.00,Wunderground v.1.15,2014-03-14 18:32:00,
2014-03-14 13:34:00,44.0,36.2,29.77,NW,320,14.0,21.0,74,0.00,,,0.00,Wunderground v.1.15,2014-03-14 18:34:00,
2014-03-14 13:38:00,43.7,36.0,29.77,NNW,330,15.0,21.0,74,0.00,,,0.00,Wunderground v.1.15,2014-03-14 18:38:00,
2014-03-14 13:40:00,44.3,36.5,29.76,NW,305,15.0,15.0,74,0.00,,,0.00,Wunderground v.1.15,2014-03-14 18:40:00,
2014-03-14 13:42:00,44.9,37.1,29.76,NW,309,15.0,21.0,74,0.00,,,0.00,Wunderground v.1.15,2014-03-14 18:42:00,
2014-03-14 13:46:00,45.7,37.5,29.77,NW,304,14.0,21.0,73,0.00,,,0.00,Wunderground v.1.15,2014-03-14 18:46:00,
2014-03-14 13:50:00,45.3,35.7,29.77,WNW,300,14.0,14.0,69,0.00,,,0.00,Wunderground v.1.15,2014-03-14 18:50:00,
2014-03-14 13:52:00,45.3,36.1,29.77,WNW,301,14.0,21.0,70,0.00,,,0.00,Wunderground v.1.15,2014-03-14 18:52:00,
2014-03-14 13:54:00,45.4,36.5,29.77,NW,310,13.0,21.0,71,0.00,,,0.00,Wunderground v.1.15,2014-03-14 18:54:00,
2014-03-14 13:58:00,45.5,37.0,29.77,WNW,302,12.0,21.0,72,0.00,,,0.00,Wunderground v.1.15,2014-03-14 18:58:00,
2014-03-14 14:00:00,45.4,36.5,29.77,WNW,287,12.0,12.0,71,0.00,,,0.00,Wunderground v.1.15,2014-03-14 19:00:00,
2014-03-14 14:04:00,45.3,37.2,29.77,NW,325,11.0,21.0,73,0.00,,,0.00,Wunderground v.1.15,2014-03-14 19:04:00,
2014-03-14 14:10:00,44.5,36.4,29.77,NW,321,12.0,21.0,73,0.00,,,0.00,Wunderground v.1.15,2014-03-14 19:10:00,
2014-03-14 14:12:00,44.3,36.2,29.77,NW,304,12.0,21.0,73,0.00,,,0.00,Wunderground v.1.15,2014-03-14 19:12:00,
2014-03-14 14:14:00,44.1,36.3,29.77,WNW,298,12.0,21.0,74,0.00,,,0.00,Wunderground v.1.15,2014-03-14 19:14:00,
2014-03-14 14:20:00,45.1,37.0,29.77,NNW,343,10.0,10.0,73,0.00,,,0.00,Wunderground v.1.15,2014-03-14 19:20:00,
2014-03-14 14:22:00,45.6,38.1,29.77,NNW,330,10.0,13.0,75,0.00,,,0.00,Wunderground v.1.15,2014-03-14 19:22:00,
2014-03-14 14:24:00,46.0,37.8,29.77,WNW,298,10.0,21.0,73,0.00,,,0.00,Wunderground v.1.15,2014-03-14 19:24:00,
2014-03-14 14:26:00,45.7,36.5,29.77,NW,319,10.0,21.0,70,0.00,,,0.00,Wunderground v.1.15,2014-03-14 19:26:00,
2014-03-14 14:28:00,45.5,37.7,29.77,NW,316,10.0,21.0,74,0.00,,,0.00,Wunderground v.1.15,2014-03-14 19:28:00,
2014-03-14 14:32:00,45.5,37.0,29.77,NW,319,10.0,12.0,72,0.00,,,0.00,Wunderground v.1.15,2014-03-14 19:32:00,
2014-03-14 14:34:00,45.4,36.9,29.77,WNW,291,10.0,14.0,72,0.00,,,0.00,Wunderground v.1.15,2014-03-14 19:34:00,
2014-03-14 14:38:00,44.7,35.9,29.77,WNW,302,11.0,21.0,71,0.00,,,0.00,Wunderground v.1.15,2014-03-14 19:38:00,
2014-03-14 14:40:00,45.1,36.3,29.77,WNW,294,12.0,21.0,71,0.00,,,0.00,Wunderground v.1.15,2014-03-14 19:40:00,
2014-03-14 14:42:00,45.2,36.4,29.77,NW,315,12.0,21.0,71,0.00,,,0.00,Wunderground v.1.15,2014-03-14 19:42:00,
2014-03-14 14:44:00,44.9,36.1,29.77,NW,325,12.0,21.0,71,0.00,,,0.00,Wunderground v.1.15,2014-03-14 19:44:00,
2014-03-14 14:48:00,44.3,35.8,29.77,NW,316,12.0,21.0,72,0.00,,,0.00,Wunderground v.1.15,2014-03-14 19:48:00,
2014-03-14 14:50:00,43.8,35.7,29.77,North,350,12.0,12.0,73,0.00,,,0.00,Wunderground v.1.15,2014-03-14 19:50:00,
2014-03-14 14:56:00,43.7,35.6,29.77,NW,314,12.0,21.0,73,0.00,,,0.00,Wunderground v.1.15,2014-03-14 19:56:00,
2014-03-14 14:58:00,43.7,35.6,29.77,NNW,330,12.0,21.0,73,0.00,,,0.00,Wunderground v.1.15,2014-03-14 19:58:00,
2014-03-14 15:02:00,44.3,36.5,29.77,NNW,332,11.0,21.0,74,0.00,,,0.00,Wunderground v.1.15,2014-03-14 20:02:00,
2014-03-14 15:04:00,44.8,37.0,29.77,NNE,20,11.0,21.0,74,0.00,,,0.00,Wunderground v.1.15,2014-03-14 20:04:00,
2014-03-14 15:06:00,45.1,36.6,29.77,NNE,16,11.0,21.0,72,0.00,,,0.00,Wunderground v.1.15,2014-03-14 20:06:00,
2014-03-14 15:08:00,44.8,36.0,29.77,NNW,328,11.0,21.0,71,0.00,,,0.00,Wunderground v.1.15,2014-03-14 20:08:00,
2014-03-14 15:10:00,44.4,36.3,29.77,NW,319,11.0,21.0,73,0.00,,,0.00,Wunderground v.1.15,2014-03-14 20:10:00,
2014-03-14 15:12:00,44.2,35.7,29.77,NW,316,11.0,21.0,72,0.00,,,0.00,Wunderground v.1.15,2014-03-14 20:12:00,
2014-03-14 15:14:00,44.5,37.1,29.77,WNW,295,11.0,21.0,75,0.00,,,0.00,Wunderground v.1.15,2014-03-14 20:14:00,
2014-03-14 15:18:00,45.8,37.3,29.77,NW,316,11.0,21.0,72,0.00,,,0.00,Wunderground v.1.15,2014-03-14 20:18:00,
2014-03-14 15:20:00,46.3,37.8,29.77,NNW,342,11.0,21.0,72,0.00,,,0.00,Wunderground v.1.15,2014-03-14 20:20:00,
2014-03-14 15:22:00,45.9,36.3,29.77,North,5,11.0,21.0,69,0.00,,,0.00,Wunderground v.1.15,2014-03-14 20:22:00,
2014-03-14 15:24:00,45.3,36.1,29.77,NW,311,11.0,21.0,70,0.00,,,0.00,Wunderground v.1.15,2014-03-14 20:24:00,
2014-03-14 15:30:00,44.7,36.2,29.77,NW,317,12.0,12.0,72,0.00,,,0.00,Wunderground v.1.15,2014-03-14 20:30:00,
2014-03-14 15:34:00,45.3,37.2,29.77,NW,325,11.0,21.0,73,0.00,,,0.00,Wunderground v.1.15,2014-03-14 20:34:00,
2014-03-14 15:36:00,45.9,37.4,29.78,NNW,340,11.0,21.0,72,0.00,,,0.00,Wunderground v.1.15,2014-03-14 20:36:00,
2014-03-14 15:38:00,45.8,36.2,29.77,NNW,327,11.0,21.0,69,0.00,,,0.00,Wunderground v.1.15,2014-03-14 20:38:00,
2014-03-14 15:40:00,45.4,36.2,29.77,NW,315,11.0,21.0,70,0.00,,,0.00,Wunderground v.1.15,2014-03-14 20:40:00,
2014-03-14 15:42:00,45.0,36.2,29.77,NW,309,11.0,21.0,71,0.00,,,0.00,Wunderground v.1.15,2014-03-14 20:42:00,
2014-03-14 15:44:00,44.6,35.8,29.78,NW,312,11.0,21.0,71,0.00,,,0.00,Wunderground v.1.15,2014-03-14 20:44:00,
2014-03-14 15:46:00,44.3,35.8,29.78,NW,311,11.0,21.0,72,0.00,,,0.00,Wunderground v.1.15,2014-03-14 20:46:00,
2014-03-14 15:50:00,44.1,36.3,29.78,WNW,298,10.0,21.0,74,0.00,,,0.00,Wunderground v.1.15,2014-03-14 20:50:00,
2014-03-14 15:52:00,44.1,36.3,29.78,NW,317,10.0,21.0,74,0.00,,,0.00,Wunderground v.1.15,2014-03-14 20:52:00,
2014-03-14 15:56:00,45.3,37.5,29.78,NNW,339,10.0,21.0,74,0.00,,,0.00,Wunderground v.1.15,2014-03-14 20:56:00,
2014-03-14 15:58:00,45.8,37.3,29.78,NW,322,10.0,21.0,72,0.00,,,0.00,Wunderground v.1.15,2014-03-14 20:58:00,
2014-03-14 16:02:00,46.1,36.5,29.78,NNW,339,10.0,21.0,69,0.00,,,0.00,Wunderground v.1.15,2014-03-14 21:02:00,
2014-03-14 16:08:00,45.1,36.3,29.78,NNW,342,10.0,21.0,71,0.00,,,0.00,Wunderground v.1.15,2014-03-14 21:08:00,
2014-03-14 16:10:00,45.0,36.5,29.78,North,352,10.0,10.0,72,0.00,,,0.00,Wunderground v.1.15,2014-03-14 21:10:00,
2014-03-14 16:12:00,45.3,37.2,29.78,NW,304,9.0,21.0,73,0.00,,,0.00,Wunderground v.1.15,2014-03-14 21:12:00,
2014-03-14 16:14:00,45.7,37.2,29.78,NW,325,9.0,21.0,72,0.00,,,0.00,Wunderground v.1.15,2014-03-14 21:14:00,
2014-03-14 16:16:00,46.0,36.8,29.78,North,349,10.0,21.0,70,0.00,,,0.00,Wunderground v.1.15,2014-03-14 21:16:00,
2014-03-14 16:18:00,45.8,36.2,29.78,NNW,335,10.0,21.0,69,0.00,,,0.00,Wunderground v.1.15,2014-03-14 21:18:00,
2014-03-14 16:20:00,45.5,35.9,29.78,NNW,328,10.0,10.0,69,0.00,,,0.00,Wunderground v.1.15,2014-03-14 21:20:00,
2014-03-14 16:24:00,45.6,37.4,29.78,NW,315,10.0,21.0,73,0.00,,,0.00,Wunderground v.1.15,2014-03-14 21:24:00,
2014-03-14 16:26:00,45.8,36.9,29.78,NW,316,9.0,21.0,71,0.00,,,0.00,Wunderground v.1.15,2014-03-14 21:26:00,
2014-03-14 16:30:00,46.1,37.2,29.78,North,349,10.0,21.0,71,0.00,,,0.00,Wunderground v.1.15,2014-03-14 21:30:00,
2014-03-14 16:32:00,45.8,36.2,29.78,NNE,20,10.0,21.0,69,0.00,,,0.00,Wunderground v.1.15,2014-03-14 21:32:00,
2014-03-14 16:34:00,45.6,36.7,29.78,NW,317,10.0,21.0,71,0.00,,,0.00,Wunderground v.1.15,2014-03-14 21:34:00,
2014-03-14 16:38:00,46.1,37.2,29.78,NW,323,10.0,21.0,71,0.00,,,0.00,Wunderground v.1.15,2014-03-14 21:38:00,
2014-03-14 16:40:00,46.3,37.0,29.79,NW,314,10.0,10.0,70,0.00,,,0.00,Wunderground v.1.15,2014-03-14 21:40:00,
2014-03-14 16:42:00,46.3,37.0,29.78,NW,325,9.0,11.0,70,0.00,,,0.00,Wunderground v.1.15,2014-03-14 21:42:00,
2014-03-14 16:44:00,46.3,37.0,29.78,NW,316,9.0,21.0,70,0.00,,,0.00,Wunderground v.1.15,2014-03-14 21:44:00,
2014-03-14 16:46:00,46.4,37.1,29.78,NNE,29,9.0,21.0,70,0.00,,,0.00,Wunderground v.1.15,2014-03-14 21:46:00,
2014-03-14 16:50:00,45.9,36.3,29.79,NNW,347,10.0,21.0,69,0.00,,,0.00,Wunderground v.1.15,2014-03-14 21:50:00,
2014-03-14 16:52:00,45.2,36.0,29.79,North,350,11.0,21.0,70,0.00,,,0.00,Wunderground v.1.15,2014-03-14 21:52:00,
2014-03-14 16:54:00,44.7,36.2,29.79,NNW,329,11.0,21.0,72,0.00,,,0.00,Wunderground v.1.15,2014-03-14 21:54:00,
2014-03-14 16:56:00,44.5,36.4,29.79,NNW,338,10.0,21.0,73,0.00,,,0.00,Wunderground v.1.15,2014-03-14 21:56:00,
2014-03-14 16:58:00,44.5,36.7,29.79,NW,318,10.0,21.0,74,0.00,,,0.00,Wunderground v.1.15,2014-03-14 21:58:00,
2014-03-14 17:04:00,44.8,36.7,29.79,North,360,10.0,21.0,73,0.00,,,0.00,Wunderground v.1.15,2014-03-14 22:04:00,
2014-03-14 17:06:00,44.4,36.3,29.79,NW,317,11.0,21.0,73,0.00,,,0.00,Wunderground v.1.15,2014-03-14 22:06:00,
2014-03-14 17:08:00,44.3,36.2,29.79,NW,313,11.0,21.0,73,0.00,,,0.00,Wunderground v.1.15,2014-03-14 22:08:00,
2014-03-14 17:10:00,44.5,36.7,29.79,NW,316,12.0,21.0,74,0.00,,,0.00,Wunderground v.1.15,2014-03-14 22:10:00,
2014-03-14 17:12:00,44.6,36.8,29.80,NNW,345,12.0,21.0,74,0.00,,,0.00,Wunderground v.1.15,2014-03-14 22:12:00,
2014-03-14 17:14:00,44.7,36.6,29.80,NNE,15,12.0,21.0,73,0.00,,,0.00,Wunderground v.1.15,2014-03-14 22:14:00,
2014-03-14 17:20:00,43.7,35.6,29.80,NW,315,12.0,21.0,73,0.00,,,0.00,Wunderground v.1.15,2014-03-14 22:20:00,
2014-03-14 17:24:00,43.1,35.4,29.80,North,354,11.0,21.0,74,0.00,,,0.00,Wunderground v.1.15,2014-03-14 22:24:00,
2014-03-14 17:28:00,43.4,35.3,29.80,NW,316,12.0,21.0,73,0.00,,,0.00,Wunderground v.1.15,2014-03-14 22:28:00,
2014-03-14 17:30:00,43.1,35.4,29.80,NNW,345,12.0,12.0,74,0.00,,,0.00,Wunderground v.1.15,2014-03-14 22:30:00,
2014-03-14 17:32:00,43.2,36.1,29.81,NNW,330,11.0,21.0,76,0.00,,,0.00,Wunderground v.1.15,2014-03-14 22:32:00,
2014-03-14 17:36:00,43.6,35.9,29.81,NW,307,10.0,21.0,74,0.00,,,0.00,Wunderground v.1.15,2014-03-14 22:36:00,
2014-03-14 17:38:00,43.8,36.0,29.81,NNW,348,10.0,21.0,74,0.00,,,0.00,Wunderground v.1.15,2014-03-14 22:38:00,
2014-03-14 17:40:00,43.9,36.1,29.81,NNW,328,10.0,10.0,74,0.00,,,0.00,Wunderground v.1.15,2014-03-14 22:40:00,
2014-03-14 17:42:00,44.0,36.2,29.81,NW,307,10.0,21.0,74,0.00,,,0.00,Wunderground v.1.15,2014-03-14 22:42:00,
2014-03-14 17:44:00,43.9,36.1,29.81,NNW,348,10.0,21.0,74,0.00,,,0.00,Wunderground v.1.15,2014-03-14 22:44:00,
2014-03-14 17:48:00,43.7,35.6,29.81,NNW,338,10.0,21.0,73,0.00,,,0.00,Wunderground v.1.15,2014-03-14 22:48:00,
2014-03-14 17:50:00,43.6,35.5,29.81,NNW,338,11.0,21.0,73,0.00,,,0.00,Wunderground v.1.15,2014-03-14 22:50:00,
2014-03-14 17:54:00,43.4,35.3,29.82,North,352,11.0,21.0,73,0.00,,,0.00,Wunderground v.1.15,2014-03-14 22:54:00,
2014-03-14 17:56:00,43.3,35.2,29.82,NNW,339,11.0,21.0,73,0.00,,,0.00,Wunderground v.1.15,2014-03-14 22:56:00,
2014-03-14 17:58:00,43.3,35.2,29.82,NW,308,11.0,21.0,73,0.00,,,0.00,Wunderground v.1.15,2014-03-14 22:58:00,
2014-03-14 18:04:00,43.1,35.0,29.82,NNW,335,10.0,21.0,73,0.00,,,0.00,Wunderground v.1.15,2014-03-14 23:04:00,
2014-03-14 18:06:00,43.0,35.3,29.82,NNW,330,10.0,21.0,74,0.00,,,0.00,Wunderground v.1.15,2014-03-14 23:06:00,
2014-03-14 18:08:00,42.9,35.2,29.82,NNW,333,9.0,21.0,74,0.00,,,0.00,Wunderground v.1.15,2014-03-14 23:08:00,
2014-03-14 18:12:00,42.9,35.5,29.83,NNW,335,8.0,21.0,75,0.00,,,0.00,Wunderground v.1.15,2014-03-14 23:12:00,
2014-03-14 18:14:00,42.9,35.2,29.82,North,350,8.0,21.0,74,0.00,,,0.00,Wunderground v.1.15,2014-03-14 23:14:00,
2014-03-14 18:16:00,42.9,35.2,29.82,NW,322,8.0,21.0,74,0.00,,,0.00,Wunderground v.1.15,2014-03-14 23:16:00,
2014-03-14 18:18:00,42.9,35.5,29.83,NW,320,8.0,21.0,75,0.00,,,0.00,Wunderground v.1.15,2014-03-14 23:18:00,
2014-03-14 18:20:00,42.8,35.4,29.83,North,9,8.0,8.0,75,0.00,,,0.00,Wunderground v.1.15,2014-03-14 23:20:00,
2014-03-14 18:22:00,42.8,35.4,29.83,NW,315,8.0,10.0,75,0.00,,,0.00,Wunderground v.1.15,2014-03-14 23:22:00,
2014-03-14 18:28:00,42.7,35.3,29.83,North,4,7.0,21.0,75,0.00,,,0.00,Wunderground v.1.15,2014-03-14 23:28:00,
2014-03-14 18:30:00,42.7,35.3,29.83,NW,315,7.0,21.0,75,0.00,,,0.00,Wunderground v.1.15,2014-03-14 23:30:00,
2014-03-14 18:32:00,42.7,35.3,29.83,NNW,330,7.0,21.0,75,0.00,,,0.00,Wunderground v.1.15,2014-03-14 23:32:00,
2014-03-14 18:34:00,42.6,35.2,29.83,NW,305,6.0,21.0,75,0.00,,,0.00,Wunderground v.1.15,2014-03-14 23:34:00,
2014-03-14 18:36:00,42.6,35.2,29.83,WNW,302,6.0,21.0,75,0.00,,,0.00,Wunderground v.1.15,2014-03-14 23:36:00,
2014-03-14 18:40:00,42.5,34.8,29.83,WNW,293,6.0,6.0,74,0.00,,,0.00,Wunderground v.1.15,2014-03-14 23:40:00,
2014-03-14 18:42:00,42.5,34.5,29.83,NW,314,6.0,21.0,73,0.00,,,0.00,Wunderground v.1.15,2014-03-14 23:42:00,
2014-03-14 18:44:00,42.5,34.5,29.83,WNW,298,6.0,21.0,73,0.00,,,0.00,Wunderground v.1.15,2014-03-14 23:44:00,
2014-03-14 18:46:00,42.5,34.5,29.83,WNW,292,6.0,21.0,73,0.00,,,0.00,Wunderground v.1.15,2014-03-14 23:46:00,
2014-03-14 18:48:00,42.4,34.4,29.83,WNW,290,5.0,21.0,73,0.00,,,0.00,Wunderground v.1.15,2014-03-14 23:48:00,
2014-03-14 18:50:00,42.3,34.3,29.83,WNW,287,6.0,21.0,73,0.00,,,0.00,Wunderground v.1.15,2014-03-14 23:50:00,
2014-03-14 18:52:00,42.3,34.3,29.83,West,269,6.0,21.0,73,0.00,,,0.00,Wunderground v.1.15,2014-03-14 23:52:00,
2014-03-14 18:56:00,42.0,34.0,29.83,WNW,287,6.0,21.0,73,0.00,,,0.00,Wunderground v.1.15,2014-03-14 23:56:00,
2014-03-14 18:58:00,41.9,33.9,29.83,WNW,288,6.0,21.0,73,0.00,,,0.00,Wunderground v.1.15,2014-03-14 23:58:00,
2014-03-14 19:00:00,41.7,34.0,29.83,WNW,291,6.0,21.0,74,0.00,,,0.00,Wunderground v.1.15,2014-03-15 00:00:00,
2014-03-14 19:02:00,41.5,33.8,29.83,WNW,287,6.0,21.0,74,0.00,,,0.00,Wunderground v.1.15,2014-03-15 00:02:00,
2014-03-14 19:04:00,41.4,33.7,29.84,WNW,288,6.0,21.0,74,0.00,,,0.00,Wunderground v.1.15,2014-03-15 00:04:00,
2014-03-14 19:06:00,41.2,33.9,29.84,WNW,285,6.0,21.0,75,0.00,,,0.00,Wunderground v.1.15,2014-03-15 00:06:00,
2014-03-14 19:10:00,40.7,33.4,29.84,WNW,297,5.0,21.0,75,0.00,,,0.00,Wunderground v.1.15,2014-03-15 00:10:00,
2014-03-14 19:12:00,40.6,33.6,29.84,West,271,5.0,21.0,76,0.00,,,0.00,Wunderground v.1.15,2014-03-15 00:12:00,
2014-03-14 19:16:00,40.1,33.1,29.84,WNW,300,4.0,21.0,76,0.00,,,0.00,Wunderground v.1.15,2014-03-15 00:16:00,
2014-03-14 19:18:00,40.0,33.4,29.84,WNW,297,4.0,21.0,77,0.00,,,0.00,Wunderground v.1.15,2014-03-15 00:18:00,
2014-03-14 19:22:00,39.6,33.3,29.85,WNW,293,4.0,21.0,78,0.00,,,0.00,Wunderground v.1.15,2014-03-15 00:22:00,
2014-03-14 19:24:00,39.3,33.0,29.85,West,281,4.0,21.0,78,0.00,,,0.00,Wunderground v.1.15,2014-03-15 00:24:00,
2014-03-14 19:28:00,38.9,32.9,29.85,WNW,300,4.0,21.0,79,0.00,,,0.00,Wunderground v.1.15,2014-03-15 00:28:00,
2014-03-14 19:30:00,38.6,32.6,29.85,WNW,298,4.0,4.0,79,0.00,,,0.00,Wunderground v.1.15,2014-03-15 00:30:00,
2014-03-14 19:34:00,38.0,32.4,29.85,WNW,301,3.0,21.0,80,0.00,,,0.00,Wunderground v.1.15,2014-03-15 00:34:00,
2014-03-14 19:36:00,37.8,32.2,29.85,WNW,295,3.0,21.0,80,0.00,,,0.00,Wunderground v.1.15,2014-03-15 00:36:00,
2014-03-14 19:38:00,37.5,31.9,29.85,WNW,302,2.0,21.0,80,0.00,,,0.00,Wunderground v.1.15,2014-03-15 00:38:00,
2014-03-14 19:40:00,37.3,32.0,29.85,WNW,302,2.0,21.0,81,0.00,,,0.00,Wunderground v.1.15,2014-03-15 00:40:00,
2014-03-14 19:42:00,37.1,31.8,29.85,NW,316,3.0,21.0,81,0.00,,,0.00,Wunderground v.1.15,2014-03-15 00:42:00,
2014-03-14 19:44:00,36.7,31.4,29.85,NW,318,3.0,21.0,81,0.00,,,0.00,Wunderground v.1.15,2014-03-15 00:44:00,
2014-03-14 19:46:00,36.3,31.0,29.85,NW,307,2.0,21.0,81,0.00,,,0.00,Wunderground v.1.15,2014-03-15 00:46:00,
2014-03-14 19:50:00,35.5,30.8,29.86,WNW,302,2.0,21.0,83,0.00,,,0.00,Wunderground v.1.15,2014-03-15 00:50:00,
2014-03-14 19:52:00,35.4,31.0,29.86,NW,306,2.0,21.0,84,0.00,,,0.00,Wunderground v.1.15,2014-03-15 00:52:00,
2014-03-14 19:54:00,35.4,31.3,29.86,WNW,299,2.0,21.0,85,0.00,,,0.00,Wunderground v.1.15,2014-03-15 00:54:00,
2014-03-14 19:56:00,35.5,31.4,29.86,WNW,297,2.0,21.0,85,0.00,,,0.00,Wunderground v.1.15,2014-03-15 00:56:00,
2014-03-14 20:00:00,35.6,31.2,29.86,WNW,288,2.0,21.0,84,0.00,,,0.00,Wunderground v.1.15,2014-03-15 01:00:00,
2014-03-14 20:02:00,35.5,31.1,29.86,WNW,294,2.0,21.0,84,0.00,,,0.00,Wunderground v.1.15,2014-03-15 01:02:00,
2014-03-14 20:04:00,35.4,31.3,29.86,WNW,288,2.0,21.0,85,0.00,,,0.00,Wunderground v.1.15,2014-03-15 01:04:00,
2014-03-14 20:08:00,35.1,31.0,29.86,WNW,289,2.0,21.0,85,0.00,,,0.00,Wunderground v.1.15,2014-03-15 01:08:00,
2014-03-14 20:10:00,34.8,30.5,29.86,West,274,2.0,2.0,84,0.00,,,0.00,Wunderground v.1.15,2014-03-15 01:10:00,
2014-03-14 20:14:00,34.0,30.0,29.87,West,278,1.0,21.0,85,0.00,,,0.00,Wunderground v.1.15,2014-03-15 01:14:00,
2014-03-14 20:16:00,33.7,30.0,29.87,West,278,1.0,21.0,86,0.00,,,0.00,Wunderground v.1.15,2014-03-15 01:16:00,
2014-03-14 20:20:00,33.5,30.0,29.86,WNW,300,1.0,21.0,87,0.00,,,0.00,Wunderground v.1.15,2014-03-15 01:20:00,
2014-03-14 20:22:00,33.6,30.4,29.87,WNW,302,1.0,21.0,88,0.00,,,0.00,Wunderground v.1.15,2014-03-15 01:22:00,
2014-03-14 20:26:00,34.0,30.8,29.87,NW,305,1.0,21.0,88,0.00,,,0.00,Wunderground v.1.15,2014-03-15 01:26:00,
2014-03-14 20:28:00,33.9,30.4,29.87,NW,305,1.0,21.0,87,0.00,,,0.00,Wunderground v.1.15,2014-03-15 01:28:00,
2014-03-14 20:34:00,33.9,30.7,29.87,WNW,288,1.0,21.0,88,0.00,,,0.00,Wunderground v.1.15,2014-03-15 01:34:00,
2014-03-14 20:36:00,33.9,30.7,29.87,WNW,284,1.0,21.0,88,0.00,,,0.00,Wunderground v.1.15,2014-03-15 01:36:00,
2014-03-14 20:40:00,34.0,30.8,29.87,WNW,298,2.0,21.0,88,0.00,,,0.00,Wunderground v.1.15,2014-03-15 01:40:00,
2014-03-14 20:42:00,34.0,30.8,29.88,WNW,301,2.0,21.0,88,0.00,,,0.00,Wunderground v.1.15,2014-03-15 01:42:00,
2014-03-14 20:48:00,33.1,29.7,29.88,NNE,24,1.0,21.0,87,0.00,,,0.00,Wunderground v.1.15,2014-03-15 01:48:00,
2014-03-14 20:50:00,32.7,29.3,29.88,NE,37,1.0,1.0,87,0.00,,,0.00,Wunderground v.1.15,2014-03-15 01:50:00,
2014-03-14 20:52:00,32.3,28.9,29.88,NE,37,1.0,21.0,87,0.00,,,0.00,Wunderground v.1.15,2014-03-15 01:52:00,
2014-03-14 20:54:00,32.0,28.8,29.88,North,5,1.0,21.0,88,0.00,,,0.00,Wunderground v.1.15,2014-03-15 01:54:00,
2014-03-14 20:58:00,31.9,29.3,29.88,NNW,335,0.0,21.0,90,0.00,,,0.00,Wunderground v.1.15,2014-03-15 01:58:00,
2014-03-14 21:00:00,31.8,29.2,29.88,NNW,334,0.0,21.0,90,0.00,,,0.00,Wunderground v.1.15,2014-03-15 02:00:00,
2014-03-14 21:02:00,31.8,29.5,29.88,NNW,334,0.0,21.0,91,0.00,,,0.00,Wunderground v.1.15,2014-03-15 02:02:00,
2014-03-14 21:06:00,31.8,29.5,29.89,NE,36,1.0,21.0,91,0.00,,,0.00,Wunderground v.1.15,2014-03-15 02:06:00,
2014-03-14 21:08:00,31.4,28.8,29.89,NE,39,1.0,21.0,90,0.00,,,0.00,Wunderground v.1.15,2014-03-15 02:08:00,
2014-03-14 21:12:00,30.7,28.1,29.89,NE,39,1.0,21.0,90,0.00,,,0.00,Wunderground v.1.15,2014-03-15 02:12:00,
2014-03-14 21:14:00,30.5,27.9,29.90,NE,38,1.0,21.0,90,0.00,,,0.00,Wunderground v.1.15,2014-03-15 02:14:00,
2014-03-14 21:16:00,30.4,28.1,29.89,NE,42,1.0,21.0,91,0.00,,,0.00,Wunderground v.1.15,2014-03-15 02:16:00,
2014-03-14 21:18:00,30.4,28.1,29.90,ENE,64,1.0,21.0,91,0.00,,,0.00,Wunderground v.1.15,2014-03-15 02:18:00,
2014-03-14 21:20:00,30.4,28.4,29.90,NNE,15,1.0,21.0,92,0.00,,,0.00,Wunderground v.1.15,2014-03-15 02:20:00,
2014-03-14 21:24:00,30.5,28.5,29.89,NNE,19,1.0,21.0,92,0.00,,,0.00,Wunderground v.1.15,2014-03-15 02:24:00,
2014-03-14 21:26:00,30.5,28.5,29.89,NNE,23,1.0,21.0,92,0.00,,,0.00,Wunderground v.1.15,2014-03-15 02:26:00,
2014-03-14 21:28:00,30.7,28.7,29.89,NNE,19,1.0,21.0,92,0.00,,,0.00,Wunderground v.1.15,2014-03-15 02:28:00,
2014-03-14 21:32:00,30.9,28.9,29.90,NNE,31,1.0,21.0,92,0.00,,,0.00,Wunderground v.1.15,2014-03-15 02:32:00,
2014-03-14 21:34:00,30.9,28.9,29.90,NNE,32,1.0,21.0,92,0.00,,,0.00,Wunderground v.1.15,2014-03-15 02:34:00,
2014-03-14 21:38:00,30.8,28.8,29.90,NNE,31,1.0,21.0,92,0.00,,,0.00,Wunderground v.1.15,2014-03-15 02:38:00,
2014-03-14 21:40:00,30.7,28.7,29.90,NE,43,1.0,21.0,92,0.00,,,0.00,Wunderground v.1.15,2014-03-15 02:40:00,
2014-03-14 21:42:00,30.7,28.7,29.90,NE,43,1.0,21.0,92,0.00,,,0.00,Wunderground v.1.15,2014-03-15 02:42:00,
2014-03-14 21:46:00,30.9,29.1,29.91,NNE,27,2.0,21.0,93,0.00,,,0.00,Wunderground v.1.15,2014-03-15 02:46:00,
2014-03-14 21:48:00,30.9,29.1,29.91,NNE,30,2.0,21.0,93,0.00,,,0.00,Wunderground v.1.15,2014-03-15 02:48:00,
2014-03-14 21:54:00,30.8,29.3,29.91,NNE,25,2.0,21.0,94,0.00,,,0.00,Wunderground v.1.15,2014-03-15 02:54:00,
2014-03-14 21:58:00,31.6,30.3,29.91,NE,53,3.0,21.0,95,0.00,,,0.00,Wunderground v.1.15,2014-03-15 02:58:00,
2014-03-14 22:00:00,31.9,30.6,29.91,NNE,31,4.0,21.0,95,0.00,,,0.00,Wunderground v.1.15,2014-03-15 03:00:00,
2014-03-14 22:04:00,32.1,30.8,29.91,NE,39,4.0,21.0,95,0.00,,,0.00,Wunderground v.1.15,2014-03-15 03:04:00,
2014-03-14 22:06:00,32.4,31.1,29.91,NNE,18,4.0,21.0,95,0.00,,,0.00,Wunderground v.1.15,2014-03-15 03:06:00,
2014-03-14 22:10:00,32.7,31.4,29.91,NE,44,4.0,4.0,95,0.00,,,0.00,Wunderground v.1.15,2014-03-15 03:10:00,
2014-03-14 22:12:00,32.8,31.5,29.91,NE,49,4.0,21.0,95,0.00,,,0.00,Wunderground v.1.15,2014-03-15 03:12:00,
2014-03-14 22:14:00,32.8,31.3,29.91,NE,41,4.0,21.0,94,0.00,,,0.00,Wunderground v.1.15,2014-03-15 03:14:00,
2014-03-14 22:16:00,32.7,31.2,29.90,NE,42,3.0,21.0,94,0.00,,,0.00,Wunderground v.1.15,2014-03-15 03:16:00,
2014-03-14 22:18:00,32.7,31.2,29.91,NE,37,3.0,21.0,94,0.00,,,0.00,Wunderground v.1.15,2014-03-15 03:18:00,
2014-03-14 22:22:00,32.7,31.2,29.91,NNE,32,3.0,21.0,94,0.00,,,0.00,Wunderground v.1.15,2014-03-15 03:22:00,
2014-03-14 22:24:00,32.7,31.2,29.90,NNE,31,3.0,21.0,94,0.00,,,0.00,Wunderground v.1.15,2014-03-15 03:24:00,
2014-03-14 22:26:00,32.8,31.3,29.90,NE,39,3.0,21.0,94,0.00,,,0.00,Wunderground v.1.15,2014-03-15 03:26:00,
2014-03-14 22:32:00,32.8,31.3,29.91,ENE,60,3.0,21.0,94,0.00,,,0.00,Wunderground v.1.15,2014-03-15 03:32:00,
2014-03-14 22:34:00,32.8,31.3,29.91,NE,38,3.0,21.0,94,0.00,,,0.00,Wunderground v.1.15,2014-03-15 03:34:00,
2014-03-14 22:36:00,32.7,31.2,29.91,NE,47,2.0,21.0,94,0.00,,,0.00,Wunderground v.1.15,2014-03-15 03:36:00,
2014-03-14 22:38:00,32.7,31.2,29.91,NE,53,2.0,21.0,94,0.00,,,0.00,Wunderground v.1.15,2014-03-15 03:38:00,
2014-03-14 22:40:00,32.8,31.3,29.91,NNE,31,2.0,21.0,94,0.00,,,0.00,Wunderground v.1.15,2014-03-15 03:40:00,
2014-03-14 22:44:00,32.8,31.0,29.91,NE,38,3.0,21.0,93,0.00,,,0.00,Wunderground v.1.15,2014-03-15 03:44:00,
2014-03-14 22:48:00,32.6,30.8,29.91,NNE,26,3.0,21.0,93,0.00,,,0.00,Wunderground v.1.15,2014-03-15 03:48:00,
2014-03-14 22:50:00,32.5,30.7,29.92,NNE,31,3.0,3.0,93,0.00,,,0.00,Wunderground v.1.15,2014-03-15 03:50:00,
2014-03-14 22:52:00,32.3,30.2,29.92,NE,34,3.0,21.0,92,0.00,,,0.00,Wunderground v.1.15,2014-03-15 03:52:00,
2014-03-14 22:54:00,32.2,30.4,29.92,NNE,25,3.0,21.0,93,0.00,,,0.00,Wunderground v.1.15,2014-03-15 03:54:00,
2014-03-14 22:56:00,32.1,30.3,29.92,NE,36,3.0,21.0,93,0.00,,,0.00,Wunderground v.1.15,2014-03-15 03:56:00,
2014-03-14 22:58:00,32.0,30.2,29.92,NE,38,3.0,21.0,93,0.00,,,0.00,Wunderground v.1.15,2014-03-15 03:58:00,
2014-03-14 23:00:00,31.8,30.0,29.92,NE,34,4.0,4.0,93,0.00,,,0.00,Wunderground v.1.15,2014-03-15 04:00:00,
2014-03-14 23:02:00,31.7,29.9,29.92,NNE,29,4.0,21.0,93,0.00,,,0.00,Wunderground v.1.15,2014-03-15 04:02:00,
2014-03-14 23:04:00,31.6,29.8,29.92,NE,34,4.0,21.0,93,0.00,,,0.00,Wunderground v.1.15,2014-03-15 04:04:00,
2014-03-14 23:08:00,31.6,29.8,29.92,NE,39,4.0,21.0,93,0.00,,,0.00,Wunderground v.1.15,2014-03-15 04:08:00,
2014-03-14 23:10:00,31.7,30.2,29.92,NE,48,4.0,21.0,94,0.00,,,0.00,Wunderground v.1.15,2014-03-15 04:10:00,
2014-03-14 23:14:00,32.2,30.7,29.91,NE,46,4.0,21.0,94,0.00,,,0.00,Wunderground v.1.15,2014-03-15 04:14:00,
2014-03-14 23:16:00,32.2,30.4,29.91,NE,43,4.0,21.0,93,0.00,,,0.00,Wunderground v.1.15,2014-03-15 04:16:00,
2014-03-14 23:18:00,32.2,30.4,29.92,NE,46,4.0,21.0,93,0.00,,,0.00,Wunderground v.1.15,2014-03-15 04:18:00,
2014-03-14 23:20:00,32.2,30.4,29.92,NE,56,4.0,4.0,93,0.00,,,0.00,Wunderground v.1.15,2014-03-15 04:20:00,
2014-03-14 23:24:00,32.2,30.4,29.92,NE,36,2.0,21.0,93,0.00,,,0.00,Wunderground v.1.15,2014-03-15 04:24:00,
2014-03-14 23:26:00,32.1,30.3,29.92,NE,36,2.0,21.0,93,0.00,,,0.00,Wunderground v.1.15,2014-03-15 04:26:00,
2014-03-14 23:28:00,32.1,30.3,29.92,ENE,67,1.0,21.0,93,0.00,,,0.00,Wunderground v.1.15,2014-03-15 04:28:00,
2014-03-14 23:32:00,32.0,30.2,29.92,NE,48,1.0,21.0,93,0.00,,,0.00,Wunderground v.1.15,2014-03-15 04:32:00,
2014-03-14 23:34:00,31.8,29.7,29.92,NE,46,2.0,21.0,92,0.00,,,0.00,Wunderground v.1.15,2014-03-15 04:34:00,
2014-03-14 23:38:00,31.6,29.8,29.92,NNE,32,3.0,21.0,93,0.00,,,0.00,Wunderground v.1.15,2014-03-15 04:38:00,
2014-03-14 23:42:00,31.5,29.7,29.92,NE,35,3.0,4.0,93,0.00,,,0.00,Wunderground v.1.15,2014-03-15 04:42:00,
2014-03-14 23:44:00,31.5,29.7,29.91,NNE,30,3.0,5.0,93,0.00,,,0.00,Wunderground v.1.15,2014-03-15 04:44:00,
2014-03-14 23:46:00,31.5,29.7,29.91,NE,42,3.0,21.0,93,0.00,,,0.00,Wunderground v.1.15,2014-03-15 04:46:00,
2014-03-14 23:48:00,31.6,29.8,29.91,NE,39,4.0,21.0,93,0.00,,,0.00,Wunderground v.1.15,2014-03-15 04:48:00,
2014-03-14 23:52:00,31.7,30.2,29.91,NE,46,4.0,21.0,94,0.00,,,0.00,Wunderground v.1.15,2014-03-15 04:52:00,
2014-03-14 23:58:00,31.6,29.8,29.91,NE,34,4.0,21.0,93,0.00,,,0.00,Wunderground v.1.15,2014-03-15 04:58:00,